Regional Weather Roundup
Issued by NWS

Home | Current Version | Previous Version | Graphics & Text | Print | Product List | Glossary On
Versions: 1 2 3 4 5 6 7 8 9 10 11 12 13 14 15 16 17 18 19 20 21 22 23 24 25 26 27 28 29 30 31 32 33 34 35 36 37 38 39 40 41 42 43 44 45 46 47 48 49 50
000
ASUS43 KOAX 280902
RWRNE

WEATHER ROUNDUP FOR NEBRASKA
NATIONAL WEATHER SERVICE OMAHA NE
400 AM CDT SAT MAR 28 2015

NOTES: SATELLITE DATA IS BEING USED TO AUGMENT CLOUD COVER ABOVE
       12000 FEET.
       "FAIR" INDICATES FEW OR NO CLOUDS BELOW 12,000 FEET WITH NO
       SIGNIFICANT WEATHER AND/OR OBSTRUCTIONS TO VISIBILITY.

  * THESE STATIONS DO NOT REPORT WEATHER SUCH AS RAIN...SNOW OR FOG.

NEZ001>004-019>022-054>056-281000-
NEBRASKA PANHANDLE

CITY           SKY/WX    TMP DP  RH WIND       PRES   REMARKS
SCOTTSBLUFF    CLEAR     38  29  70 CALM      30.00S
ALLIANCE       PTCLDY    33  29  85 W5        29.98F WCI  29
CHADRON        PTCLDY    34  30  85 W7        29.96F WCI  28
KIMBALL        CLEAR     37  27  67 CALM      30.02S
SIDNEY         CLEAR     37  28  70 NW13      30.01F WCI  29
$$

NEZ057>060-069>072-079>082-281000-
SOUTHWEST NEBRASKA

CITY           SKY/WX    TMP DP  RH WIND       PRES   REMARKS
NORTH PLATTE   CLEAR     30  27  88 NW3       29.96F
IMPERIAL         N/A     37  28  70 CALM      29.98F
MCCOOK         PTCLDY    37  32  82 SW7       29.97S WCI  32
$$

NEZ005>010-023>029-035>040-094-281000-
NORTH CENTRAL NEBRASKA

CITY           SKY/WX    TMP DP  RH WIND       PRES   REMARKS
VALENTINE      CLEAR     30  27  88 CALM      29.98R
AINSWORTH      CLEAR     33  30  87 CALM      29.97S
BROKEN BOW     CLEAR     31  28  89 N5        29.96S WCI  26
ORD            PTCLDY    25  21  85 CALM      29.98F
$$

NEZ041-046>049-061>064-073>077-083>087-281000-
SOUTH CENTRAL NEBRASKA

CITY           SKY/WX    TMP DP  RH WIND       PRES   REMARKS
GRAND ISLAND   CLOUDY    31  24  75 E6        30.02S WCI  25
HASTINGS       PTCLDY    27  22  81 N8        29.98S WCI  19
HEBRON         CLOUDY    32  23  69 E3        30.01R
KEARNEY *      CLEAR     27  21  80 NE7       29.99R WCI  19
$$

NEZ011>018-030>034-042>045-281000-
NORTHEAST NEBRASKA

CITY           SKY/WX    TMP DP  RH WIND       PRES   REMARKS
NORFOLK        MOCLDY    31  24  75 SE7       30.04S WCI  24
ALBION         CLOUDY    32  26  76 E7        30.02F WCI  26
BLAIR          MOCLDY    33  26  74 SE10      30.08S WCI  25
COLUMBUS *     CLOUDY    32  19  59 E6        30.07S WCI  26
TEKAMAH        CLOUDY    34  26  72 SE13      30.10F WCI  25
$$

NEZ050>053-065>068-078-088>093-281000-
SOUTHEAST NEBRASKA

CITY           SKY/WX    TMP DP  RH WIND       PRES   REMARKS
LINCOLN        CLOUDY    36  22  56 E9        30.07F WCI  29
OMAHA EPPLEY   CLOUDY    34  27  75 SE10      30.11S WCI  26
FALLS CITY     CLOUDY    36  26  67 E10       30.09R WCI  28
NEBRASKA CITY  CLOUDY    34  25  71 E9        30.09S WCI  26
PLATTSMOUTH    CLOUDY    33  26  74 E10       30.09S WCI  25
$$

NEZ044-045-051>053-067-281000-
OMAHA AREA

CITY           SKY/WX    TMP DP  RH WIND       PRES   REMARKS
OMAHA EPPLEY   CLOUDY    34  27  75 SE10      30.11S WCI  26
BLAIR          MOCLDY    33  26  74 SE10      30.08S WCI  25
OFFUTT AFB     CLOUDY    34  26  73 SE10      30.09S WCI  26
PLATTSMOUTH    CLOUDY    33  26  74 E10       30.09S WCI  25
$$


USA.gov is the U.S. government's official web portal to all federal, state and local government web resources and services.